{"data":{"norad_id":58548,"intl_designator":"2023-192T","name":"STARLINK-31016","alt_names":[],"object_type":"PAYLOAD","status":"ACTIVE","operator":null,"country":"US","launch_date":"2023-12-08","launch_site_code":"AFWTR","launch_vehicle":null,"mission":null,"orbit_class":"UNKNOWN","rcs_meters":null,"size_class":null,"mass_kg":null,"dimensions":null,"purposes":["comms"],"wikipedia_slug":null,"has_3d_model":false,"image_url":null,"decayed_at":null,"tle_current":{"epoch":"2026-05-25T01:50:35.756736Z","epoch_age_seconds":64483,"freshness":"FRESH","line1":"1 58548U 23192T   26145.07680274 -.00001542  00000+0 -39960-4 0  9993","line2":"2 58548  53.1600  67.6685 0001154  85.5142 274.5990 15.30180246137682","mean_motion":15.30180246,"eccentricity":0.0001154,"inclination_deg":53.16,"raan_deg":67.6685,"arg_perigee_deg":85.5142,"mean_anomaly_deg":274.599,"bstar":-3.996e-5,"rev_number":13768,"period_min":94.106560567898,"perigee_km":474.48316830177,"apogee_km":476.06493557256,"semimajor_km":6853.4110519372,"source":"CELESTRAK","updated_at":"2026-05-25T13:38:18.663936Z"}}}